Location: Puerto Pe�asco
(31.3170°N, 113.5330°W)
Time: 19:46:24
(UTC-07:00)

Daily predictions for brighter satellites

Satellite Brightness Start Highest point End
(mag) Time Altitude Azimuth Time Altitude Azimuth Time Altitude Azimuth
Cosmos 1242 Rocket 3.4 19:52:40 10° SSW 19:56:19 57° W 20:00:00 10° N
FengYun 1-2 T 4.2 19:51:24 10° SSE 19:56:55 81° ENE 20:02:25 10° N
Cosmos 2233 Rocket 4.2 19:51:55 10° N 19:57:58 51° E 20:03:56 10° SSE
BREEZE-M R/B 2.8 19:56:06 10° NW 19:59:04 83° SW 20:04:30 10° SE
Meteor 1-19 Rocket 4.4 19:59:01 10° SSE 20:04:27 50° E 20:09:50 10° NNE
Cosmos 2098 Rocket 2.9 20:02:20 10° N 20:05:48 56° E 20:10:06 10° SSE
Meteor 2-4 Rocket 4.4 20:00:32 10° SSE 20:05:48 37° E 20:11:10 10° NNE
Delta 168 3.9 20:04:12 10° SW 20:07:02 23° SSE 20:10:31 10° ESE
CZ-2C R/B 2.5 20:06:25 11° ESE 20:07:40 15° ENE 20:09:06 10° NE
Cosmos 2251 Rocket 3.5 20:02:50 10° S 20:08:06 75° ESE 20:13:26 10° NNE
Cosmos 2333 Rocket 3.4 20:03:06 10° SW 20:08:30 47° WNW 20:13:56 10° N
deb Chang Zheng 4 4.1 20:08:35 10° NNE 20:12:41 38° E 20:16:44 10° SSE
H-2A R/B 3.0 20:09:49 10° SSE 20:13:39 56° ENE 20:17:33 10° N
ATLAS 3B R/B 4.4 20:16:52 11° ESE 20:18:21 12° ESE 20:20:52 10° E
Cosmos 1844 Rocket 3.7 20:15:03 10° NNW 20:20:26 47° WSW 20:25:48 10° S
ERS-1 Rocket 3.5 20:16:55 10° SE 20:21:30 41° ENE 20:26:11 10° N
Cosmos 1975 4.1 20:18:27 10° NNW 20:22:14 41° W 20:25:59 10° SSW
Cosmos 1844 4.2 20:17:09 10° NNW 20:22:52 64° WSW 20:28:34 10° S
Envisat 4.4 20:19:51 13° ESE 20:22:59 21° ENE 20:26:46 10° NNE
FENGYUN 3A 3.6 20:19:53 10° SSE 20:25:13 82° ENE 20:30:38 10° N
Cosmos 1606 Rocket 3.6 20:21:42 10° N 20:26:04 59° E 20:30:18 11° SSE
H-2A R/B 2.7 20:25:28 15° SE 20:28:28 36° ENE 20:32:24 10° N
Cosmos 1110 Rocket 4.4 20:23:54 10° N 20:29:00 47° ENE 20:32:56 16° SE
Hubble Space Telescope 2.7 20:26:08 10° WSW 20:29:02 18° SSW 20:31:28 12° SSE
ATLAS CENTAUR R/B 4.2 20:31:58 10° WSW 20:36:09 27° NW 20:40:27 10° N
Cosmos 1626 Rocket 4.5 20:34:50 18° SE 20:37:10 29° E 20:41:00 10° NNE
SJ-11-01 4.3 20:40:53 17° SSE 20:44:21 64° ENE 20:48:59 10° N
GEOS 3 Rocket 3.8 20:44:04 16° SSE 20:48:16 72° WSW 20:53:31 10° NW
USA 186 3.5 20:47:29 10° SSW 20:50:07 27° W 20:52:36 10° NW
PSLV R/B 3.9 20:47:39 10° WSW 20:51:08 60° NNW 20:54:39 10° NE
Atlas Centaur 2 3.0 20:45:14 10° WSW 20:52:35 60° SSE 21:00:56 10° E
Aureole 2 Rocket 2.7 20:48:34 10° SSW 20:52:43 86° WNW 20:56:31 10° NNE
ISS -1.4 20:51:27 10° SSW 20:52:25 17° S 20:52:25 17° S
Cosmos 1939 Rocket 3.0 20:54:31 30° SE 20:56:23 58° ENE 21:00:28 10° N
Cosmos 2228 3.2 20:52:20 10° N 20:56:39 52° E 20:58:25 31° SE
Cosmos 2278 Rocket 3.1 20:52:21 10° NNW 20:57:44 46° WSW 21:02:58 11° S
Meteor 1-15 Rocket 4.2 20:56:01 10° N 21:01:35 65° E 21:04:45 26° SSE
COSMOS 2455 3.0 20:57:07 10° S 21:02:49 47° ESE 21:08:33 10° NE
Cosmos 1891 Rocket 4.4 21:00:03 10° N 21:06:08 63° E 21:09:23 28° SSE
Milstar 3 Cent rocket 2.8 20:59:14 10° W 21:06:20 46° SSW 21:08:18 31° SSE
CZ-4 SHROUD 3.5 21:07:20 50° ENE 21:07:20 50° ENE 21:10:22 10° N
SPOT 5 2.9 21:06:10 36° ESE 21:07:31 50° ENE 21:11:45 10° N
Cosmos 1666 2.6 21:04:58 10° N 21:08:51 72° E 21:09:52 47° SSE
Cosmos 2369 Rocket 4.3 21:09:33 10° NNE 21:11:40 12° NE 21:13:08 11° ENE
OTV 4 2.5 21:09:40 10° W 21:11:32 18° SW 21:11:32 18° SW
SL-16 R/B 3.9 21:06:51 10° SW 21:11:56 34° WNW 21:17:03 10° N
ARGOS 4.4 21:10:54 23° E 21:12:01 25° ENE 21:16:19 10° NNE
Gbstr 26 Del rocket 4.5 21:11:31 10° NW 21:19:07 88° SW 21:23:16 33° SE
Geosat 4.3 21:17:29 10° NE 21:22:13 42° ESE 21:22:13 42° ESE
Tsikada Rocket 4.0 21:18:41 18° S 21:23:39 87° E 21:30:04 10° N
SeaSat 1 2.3 21:29:57 52° SE 21:31:10 81° ENE 21:36:07 10° NNW
MetOp-B 4.1 21:30:23 48° SE 21:31:48 71° ENE 21:37:08 10° N
Cosmos 1515 4.4 21:33:52 43° NE 21:33:52 43° NE 21:36:46 10° NNE
Cosmos 1302 Rocket 4.0 21:29:01 10° NNW 21:34:16 79° WSW 21:35:46 48° S
Terra 3.8 21:35:13 15° ENE 21:35:13 15° ENE 21:37:25 10° NNE
IUS-17 SRM-1 4.4 21:35:41 10° W 21:39:39 60° S 21:45:10 31° ESE
Cosmos 1066 Rocket 4.4 21:39:23 50° ESE 21:39:45 51° E 21:45:18 10° NNE
Cosmos 1603 4.4 21:35:10 10° SW 21:40:39 54° WNW 21:46:08 10° N
CZ-4B R/B 3.6 21:36:03 10° N 21:41:08 77° WNW 21:43:33 33° SSW
Cosmos 1825 Rocket 4.0 21:47:30 50° NE 21:47:30 50° NE 21:51:03 10° NNE
APEX 4.1 21:42:59 10° NNW 21:47:22 64° WSW 21:48:20 53° SSW
Cosmos 1461 3.2 21:43:59 10° NNW 21:47:38 59° NNE 21:47:38 59° NNE
Timation 1 Rocket 4.3 21:45:08 10° NNW 21:51:10 82° WSW 21:52:25 58° S
Cosmos 1812 Rocket 3.8 21:52:50 10° NNW 21:57:05 65° W 21:57:05 65° W
YAOGAN 6 3.7 21:59:24 45° NNW 21:59:24 45° NNW 22:02:07 10° NNW
USA 245 4.3 21:58:04 60° S 21:59:18 86° WSW 22:04:59 10° NNW
Centaur D AC-28 3.5 21:57:23 10° WSW 21:58:43 19° SW 21:58:43 19° SW
Envisat 4.3 22:00:03 27° SW 22:01:43 34° W 22:06:19 10° NNW
Cosmos 1943 3.1 22:05:17 67° SSW 22:06:05 85° WNW 22:11:48 10° NNE
Cosmos 407 Rocket 4.0 22:07:33 47° NE 22:07:33 47° NE 22:11:27 10° NNE
ATLAS 3B R/B 2.8 22:03:51 30° SSW 22:08:06 82° ESE 22:15:45 10° NNE
OAO 3 Copernicus 4.5 22:03:54 10° WNW 22:08:18 68° WNW 22:08:18 68° WNW
Cosmos 1634 Rocket 3.8 22:06:05 10° N 22:12:17 79° E 22:12:36 76° ESE
USA 234 3.1 22:17:55 70° SE 22:18:46 86° NE 22:25:22 10° NW
USA 81 4.1 22:14:02 10° N 22:19:05 73° WNW 22:19:05 73° WNW
Cosmos 1943 Rocket 4.0 22:20:25 10° NNE 22:23:46 19° NE 22:23:46 19° NE
Cosmos 489 Rocket 4.4 22:27:13 80° SW 22:27:33 84° WNW 22:33:56 10° NNE
Cosmos 2279 Rocket 4.1 22:31:43 10° N 22:37:18 67° NE 22:37:18 67° NE
H-2A R/B 2.8 22:40:36 47° N 22:40:36 47° N 22:44:09 10° N
USA 238 DEB 4.4 22:42:39 42° ENE 22:42:39 42° ENE 22:47:26 10° NE
USA 238 4.4 22:42:48 41° ENE 22:42:48 41° ENE 22:47:30 10° NE
Atlas Centaur 2 2.9 22:34:17 10° W 22:42:30 84° S 22:43:36 71° ESE
ARGOS 4.4 22:52:25 33° W 22:52:25 33° W 22:56:53 10° NW
Cosmos 2369 Rocket 2.8 22:50:38 10° NNW 22:54:55 53° NW 22:54:55 53° NW
Lacrosse 4 Rocket 4.0 23:07:36 18° NNW 23:07:36 18° NNW 23:09:05 10° N
Terra 3.6 23:14:06 27° NW 23:14:06 27° NW 23:16:34 10° NNW
COSMOS 2406 4.5 23:14:44 35° NNE 23:14:44 35° NNE 23:17:58 10° NNE
CZ-4C R/B 4.3 23:53:07 19° NE 23:53:07 19° NE 23:54:43 10° NE
